Regional Weather Roundup
Issued by NWS

Home | Current Version | Previous Version | Graphics & Text | Print | Product List | Glossary On
Versions: 1 2 3 4 5 6 7 8 9 10 11 12 13 14 15 16 17 18 19 20 21 22 23 24 25 26 27 28
000
ASUS45 KBOU 260910
RWRCO

WEATHER ROUNDUP FOR COLORADO
NATIONAL WEATHER SERVICE DENVER/BOULDER CO
300 AM MDT SAT MAY 26 2018

NOTE: "FAIR" INDICATES FEW OR NO CLOUDS BELOW 12000 FEET WITH NO
SIGNIFICANT WEATHER AND/OR OBSTRUCTIONS TO VISIBILITY.

COZ001>005-013-030-031-261000-
...NORTHWEST COLORADO...

CITY           SKY/WX    TMP DP  RH WIND       PRES   REMARKS
CRAIG          FAIR      37  33  85 CALM      30.02F
HAYDEN         FAIR      48  34  58 E10       30.06F
MEEKER         FAIR      45  25  45 E6        30.03F
RANGELY        FAIR      44  26  49 E5        29.94S
RABBIT EARS PA FAIR      52   9  17 S8        30.33S
STEAMBOAT SPGS FAIR      43  34  69 CALM      30.08S
WALDEN         FAIR      41  27  56 SE5       30.17F
$$

COZ006>008-011-261000-
...WEST CENTRAL VALLEYS...

CITY           SKY/WX    TMP DP  RH WIND       PRES   REMARKS
GRAND JUNCTION FAIR      64  17  16 E17       29.91S
MONTROSE       FAIR      57  16  20 SE13      30.03S
EAGLE          FAIR      46  19  34 CALM      30.11S
RIFLE          FAIR      51  18  27 CALM      29.99F
DELTA          FAIR      56  18  22 E3        30.00R
NUCLA          FAIR      59  10  14 E10       30.08R
$$

COZ017>023-064>068-261000-
...SOUTHWEST COLORADO...

CITY           SKY/WX    TMP DP  RH WIND       PRES   REMARKS
DURANGO        FAIR      41  18  39 NE3       30.13R
CORTEZ         FAIR      47  20  34 E9        30.08R
PAGOSA SPRINGS FAIR      41  16  36 CALM      30.20R
TELLURIDE      FAIR      52  10  18 CALM      30.28R
WOLF CREEK PAS FAIR      43   1  17 SW15G21   30.48F
$$

COZ009-010-012-014-032>034-037-058>063-261000-
...CENTRAL COLORADO...

CITY           SKY/WX    TMP DP  RH WIND       PRES   REMARKS
ASPEN          FAIR      44  23  43 VRB3      30.15S
BUENA VISTA    FAIR      49  22  35 NW6       30.19R
COPPER MTN     FAIR      54  14  20 SE5       30.45F
BERTHOUD PASS  FAIR      43  32  65 W13       30.47F
COTTONWOOD PAS FAIR      61  -4   7 S6        30.30S
GUNNISON       FAIR      39  21  48 CALM      30.20S
GRANBY         FAIR      40  30  68 CALM      30.20S
KREMMLING      FAIR      43  30  61 E3        30.16S
LEADVILLE      FAIR      36  23  59 CALM      30.29F
MONARCH PASS   FAIR      46   1  15 MISG      30.55F
SALIDA         FAIR      52  22  31 W5        30.23S
SUNLIGHT       FAIR      46   5  18 SW7       30.37S
WILKERSON PASS FAIR      46  30  53 SW10      30.42F
$$

COZ069>075-261000-
...SAN LUIS VALLEY/SANGRE DE CRISTO MOUNTAINS...

CITY           SKY/WX    TMP DP  RH WIND       PRES   REMARKS
ALAMOSA        FAIR      38  26  62 E5        30.15F
DEL NORTE      FAIR      48  10  22 W9        30.19S
LA VETA PASS   FAIR      52   9  17 S15       30.44S
SAGUACHE       NOT AVBL
$$

COZ035-036-038>040-261000-
...NORTHERN COLORADO FRONT RANGE...

CITY           SKY/WX    TMP DP  RH WIND       PRES   REMARKS
DENVER INTL AP FAIR      62  44  51 S10       29.96F
AURORA         NOT AVBL
FRONT RANGE AP FAIR      62  47  59 CALM      29.98F
ERIE MUNI ARPT FAIR      53  42  68 CALM      29.99F
BOULDER MUN AP FAIR      61  37  41 CALM      29.95F
CENTENNIAL     FAIR      65  47  52 S12       29.99F
BROOMFIELD     FAIR      64  34  32 CALM      29.98F
FORT COLLINS   FAIR      58  47  66 NE7       29.94F
LONGMONT       FAIR      56  45  65 CALM      29.96S
$$

COZ041-046-047-076>085-087-088-261000-
...PIKES PEAK/PALMER DIVIDE AND SOUTHERN FOOTHILLS...

CITY           SKY/WX    TMP DP  RH WIND       PRES   REMARKS
COLO. SPRINGS  FAIR      61  46  57 NE9       30.04F
A. F. ACADEMY  FAIR      50  41  71 N8        30.06F
SCHRIEVER AFB  NOT AVBL
CHEYENNE MTN   FAIR      62  42  47 NW8       30.03F
ELLICOTT         N/A    N/A N/A N/A SE15      30.01F
FALCON         FAIR      57  43  59 NE3       30.09F
FORT CARSON    FAIR      57  44  62 N8        30.00F
LIMON          FAIR      47  44  90 CALM      30.00F
MONUMENT HILL  FAIR      55  43  62 S14       30.09F
CANON CITY     CLEAR     61  43  51 SW7       29.97F
WALSENBURG     FAIR      61  14  16 W7        30.02S
TRINIDAD       FAIR      60  32  34 CALM      30.00F
$$

COZ042>045-048>051-090-091-261000-
...NORTHEAST COLORADO...

CITY           SKY/WX    TMP DP  RH WIND       PRES   REMARKS
GREELEY ARPT   FAIR      58  47  66 E3        29.93S
AKRON          FAIR      66  50  56 S12       29.93F
BURLINGTON     FAIR      64  61  90 S12       29.93F
WRAY           HAZE      59  48  67 W3        29.90F VSB 1
YUMA           FAIR      55  43  62 S6        29.91F
STERLING       FAIR      55  50  82 N3        29.90F
HOLYOKE        FAIR      59  50  72 W3        29.91S
FORT MORGAN    FAIR      62  46  55 CALM      29.94F
$$

COZ086-089-092>099-261000-
...SOUTHEAST COLORADO...

CITY           SKY/WX    TMP DP  RH WIND       PRES   REMARKS
PUEBLO         FAIR      57  42  57 CALM      29.92S
LA JUNTA       FAIR      65  51  60 E8        29.90F
LAMAR          FAIR      69  62  78 S17       29.87F
SPRINGFIELD      N/A     56  56 100 SW5       29.95F
$$




USA.gov is the U.S. government's official web portal to all federal, state and local government web resources and services.